[[{"header":{"parameterUnit":"m.s-1","parameterCategory":1,"la1":30.2991,"la2":30.254,"lo1":-89.0895,"lo2":-89.0444,"dy":0.0017,"dx":0.0017,"nx":28,"ny":28,"refTime":"2023-10-07T21:00:00:Z","depth":0,"parameterNumber":2,"parameterNumberName":"U-component_of_WINDS"},"data":[0,0,0,0,0,0,0,0,0,0,0,0,0,0,0,0,0,0,0,0,0,0,0,0,0,0,0,0,0,0,0,0,0,0,0,0,0,0,0,0,0,0,0,0,0,0,0,0,0,0,0,0,0,0,0,0,0,0,1.3991,1.3992,0,1.402,1.402,1.402,1.4024,1.4024,1.4023,1.4023,1.4053,1.4054,1.4055,0,0,0,0,0,0,0,0,0,0,0,0,0,1.3943,1.3944,1.3991,1.3992,1.3992,1.402,1.402,1.402,1.4024,1.4024,1.4023,1.4023,1.4052,1.4054,1.4055,0,0,0,0,0,0,0,0,0,0,0,0,0,1.3967,1.3944,1.3991,1.3997,1.3998,1.4019,1.402,1.402,1.4024,1.4024,1.4023,1.4023,1.4052,1.4053,1.4055,1.4073,0,0,1.406,1.406,0,0,0,0,0,0,0,0,1.3965,1.3968,1.3996,1.3997,1.3998,1.4018,1.4014,1.4038,1.4024,1.4014,1.4023,1.4023,1.4041,1.4044,1.405,1.4074,1.4075,1.406,1.4061,1.4061,1.4062,0,0,0,0,0,0,0,1.3964,1.3967,1.4003,1.3996,1.3998,1.3999,1.4002,1.4018,1.403,1.4015,1.4015,1.4019,1.4042,1.4049,1.4051,1.4076,1.406,1.4061,1.4062,1.4063,1.4118,1.4118,0,0,0,0,0,0,1.3961,1.3966,1.4002,1.4003,1.398,1.4,1.4004,1.4012,1.403,1.4032,1.4019,1.4019,1.4046,1.4049,1.4052,1.4075,1.4061,1.4063,1.4064,1.4117,1.4118,1.4118,0,0,0,0,0,0,1.396,1.3964,1.4001,1.3985,1.399,1.4002,1.4011,1.4013,1.4019,1.4033,1.4035,1.4023,1.4046,1.405,1.4068,1.4076,1.4064,1.4065,1.4116,1.4117,1.4118,1.412,0,0,0,0,0,0,1.3958,1.3963,1.397,1.3985,1.399,1.4015,1.4011,1.4013,1.4022,1.4022,1.4037,1.404,1.4046,1.4065,1.4069,1.4078,1.4066,1.4116,1.4117,1.4118,1.4119,1.412,1.4122,0,0,0,0,0,1.3956,1.3969,1.397,1.3974,1.3998,1.4016,1.4019,1.4026,1.4022,1.4029,1.4038,1.4039,1.4074,1.4067,1.4072,1.408,1.4115,1.4116,1.4118,1.4118,1.412,1.4122,0,0,0,0,0,0,1.3954,1.3971,1.3972,1.399,1.4001,1.4016,1.4025,1.4027,1.404,1.4039,1.4048,1.4051,1.4069,1.4077,1.4069,1.4099,1.4095,1.4097,1.4094,1.4095,1.4097,1.4094,1.4068,0,0,0,0,0,1.3956,1.3968,1.3982,1.3996,1.4002,1.4013,1.402,1.4025,1.4037,1.4042,1.4052,1.4065,1.4079,1.4087,1.4101,1.412,1.4124,1.4129,1.413,1.4131,1.4133,1.4145,1.4147,1.4122,1.4122,1.4122,0,0,1.3959,1.397,1.3977,1.3996,1.4006,1.4019,1.4017,1.403,1.4041,1.4044,1.4062,1.407,1.4085,1.4104,1.4113,1.4111,1.4141,1.4133,1.4133,1.4134,1.4146,1.4149,1.4151,1.4123,1.4123,1.4123,0,0,1.3971,1.398,1.3994,1.4004,1.4018,1.4025,1.4029,1.4044,1.4049,1.4067,1.4071,1.4084,1.4107,1.4118,1.4126,1.4145,1.4147,1.4149,1.4156,1.4168,1.417,1.4171,1.4179,1.4181,1.4151,1.4151,1.4151,0,1.3973,1.3993,1.4,1.4014,1.4023,1.4028,1.4042,1.4051,1.4069,1.4076,1.4073,1.4104,1.4114,1.4136,1.4141,1.4148,1.4152,1.4147,1.4169,1.417,1.4172,1.4179,1.4182,1.4151,1.4151,1.4151,1.4151,0,1.3995,1.4009,1.4018,1.4036,1.4046,1.406,1.407,1.408,1.4084,1.4092,1.4111,1.4123,1.414,1.4146,1.415,1.4169,1.4168,1.4167,1.4162,1.4175,1.4182,1.4184,1.4151,1.4151,1.4151,1.4151,0,0,1.4005,1.4029,1.4032,1.4041,1.4058,1.4069,1.4084,1.41,1.4109,1.4122,1.4135,1.4156,1.4156,1.4165,1.4171,1.4181,1.4196,1.4179,1.418,1.4182,1.4219,1.422,1.4223,1.4198,1.4198,1.4199,1.4218,0,1.402,1.4046,1.4054,1.4077,1.409,1.4096,1.4109,1.4121,1.413,1.4143,1.4152,1.4167,1.4165,1.4171,1.4182,1.4192,1.4204,1.4191,1.4211,1.4211,1.4206,1.4226,1.4226,1.4244,1.4221,1.4221,1.4222,0,1.404,1.4054,1.4078,1.4095,1.4101,1.4112,1.4129,1.4141,1.4156,1.4162,1.4173,1.4178,1.4195,1.419,1.4214,1.4205,1.4214,1.422,1.4221,1.4223,1.4217,1.4228,1.425,1.4252,1.4226,1.4225,1.4225,0,1.4046,1.4071,1.4088,1.4096,1.4116,1.4124,1.4133,1.4147,1.4157,1.4172,1.4179,1.4195,1.4204,1.4217,1.4227,1.4222,1.4251,1.4246,1.4256,1.4256,1.4261,1.4261,1.4284,1.4267,1.4267,1.4267,1.4267,0,1.4062,1.4076,1.4091,1.4102,1.4119,1.4129,1.4145,1.4154,1.4168,1.4181,1.4187,1.42,1.4212,1.4226,1.4234,1.4253,1.4257,1.4263,1.4264,1.4262,1.4261,1.4267,1.4266,1.4268,1.4268,1.4267,1.4267,0,1.407,1.4081,1.4101,1.4119,1.4124,1.4135,1.4151,1.4162,1.4171,1.4188,1.4193,1.4207,1.4225,1.4236,1.4258,1.4264,1.4285,1.4286,1.4279,1.428,1.429,1.4289,1.4318,1.4322,1.4302,1.4303,1.4303,0,1.4079,1.409,1.411,1.4119,1.4128,1.4143,1.4154,1.4164,1.4175,1.4194,1.4203,1.4221,1.4236,1.4264,1.4277,1.4294,1.4296,1.4305,1.4299,1.4296,1.4297,1.4296,1.4297,1.4306,1.4306,1.4307,1.4307,0,1.4094,1.4099,1.4114,1.4131,1.4143,1.4157,1.4171,1.4178,1.4192,1.4204,1.4222,1.4233,1.4257,1.4275,1.4294,1.4304,1.4308,1.4309,1.4312,1.4309,1.4305,1.4308,1.4282,1.4308,1.4308,1.4308,1.4308,1.4307,1.4103,1.4114,1.413,1.4146,1.4158,1.4171,1.4183,1.4194,1.4209,1.4229,1.4235,1.4254,1.427,1.4296,1.4307,1.4322,1.4321,1.4326,1.4327,1.4328,1.4328,1.4303,1.4326,1.4326,1.4326,1.4326,1.4326,0,1.4119,1.413,1.4145,1.4164,1.4178,1.4181,1.4197,1.4208,1.4224,1.4239,1.4254,1.4276,1.4294,1.4309,1.4327,1.4337,1.434,1.4342,1.4341,1.4343,1.4328,1.4323,1.434,1.434,1.434,1.434,1.434,1.434,1.4128,1.4147,1.4154,1.4179,1.419,1.4209,1.4218,1.4231,1.4243,1.4266,1.4281,1.4291,1.4306,1.4327,1.4344,1.4348,1.4355,1.4356,1.4361,1.4346,1.4344,1.4343,1.4339,1.4358,1.4358,1.4375,1.4375,1.4375]},{"header":{"parameterUnit":"m.s-1","parameterCategory":1,"la1":30.2991,"la2":30.254,"lo1":-89.0895,"lo2":-89.0444,"dy":0.0017,"dx":0.0017,"nx":28,"ny":28,"refTime":"2023-10-07T21:00:00:Z","depth":0,"parameterNumber":3,"parameterNumberName":"V-component_of_WINDS"},"data":[0,0,0,0,0,0,0,0,0,0,0,0,0,0,0,0,0,0,0,0,0,0,0,0,0,0,0,0,0,0,0,0,0,0,0,0,0,0,0,0,0,0,0,0,0,0,0,0,0,0,0,0,0,0,0,0,0,0,-2.7094,-2.7094,0,-2.7136,-2.7137,-2.7137,-2.7164,-2.7164,-2.7164,-2.7164,-2.7206,-2.7207,-2.7208,0,0,0,0,0,0,0,0,0,0,0,0,0,-2.7035,-2.7036,-2.7094,-2.7094,-2.7095,-2.7136,-2.7137,-2.7137,-2.7164,-2.7164,-2.7164,-2.7164,-2.7205,-2.7207,-2.7208,0,0,0,0,0,0,0,0,0,0,0,0,0,-2.7068,-2.7037,-2.7094,-2.7113,-2.7115,-2.7136,-2.7137,-2.7137,-2.7164,-2.7164,-2.7164,-2.7164,-2.7205,-2.7206,-2.7208,-2.7212,0,0,-2.7212,-2.7213,0,0,0,0,0,0,0,0,-2.7066,-2.707,-2.7109,-2.7112,-2.7114,-2.7145,-2.7132,-2.7163,-2.7163,-2.7145,-2.7164,-2.7164,-2.7185,-2.7188,-2.7196,-2.7214,-2.7216,-2.7213,-2.7213,-2.7214,-2.7214,0,0,0,0,0,0,0,-2.7063,-2.7068,-2.711,-2.711,-2.7113,-2.712,-2.7124,-2.7138,-2.7163,-2.7147,-2.7149,-2.7153,-2.7186,-2.7194,-2.7197,-2.7217,-2.7212,-2.7214,-2.7215,-2.7215,-2.7244,-2.7244,0,0,0,0,0,0,-2.7058,-2.7066,-2.7109,-2.7112,-2.709,-2.712,-2.7126,-2.7135,-2.7163,-2.7168,-2.7153,-2.7155,-2.7192,-2.7195,-2.7198,-2.7207,-2.7214,-2.7215,-2.7216,-2.7244,-2.7244,-2.7244,0,0,0,0,0,0,-2.7057,-2.7062,-2.7107,-2.7089,-2.7096,-2.7121,-2.7131,-2.7135,-2.7143,-2.7168,-2.7173,-2.7156,-2.7192,-2.7196,-2.721,-2.7209,-2.7216,-2.7217,-2.7245,-2.7244,-2.7244,-2.7224,0,0,0,0,0,0,-2.7055,-2.7061,-2.7063,-2.7089,-2.7097,-2.7117,-2.7131,-2.7136,-2.7146,-2.7148,-2.7172,-2.7177,-2.7192,-2.7207,-2.7211,-2.7211,-2.7218,-2.7245,-2.7244,-2.7244,-2.7225,-2.7223,-2.7222,0,0,0,0,0,-2.7053,-2.7054,-2.7063,-2.7068,-2.7099,-2.7117,-2.7122,-2.714,-2.7146,-2.7148,-2.7165,-2.7176,-2.7209,-2.7208,-2.7213,-2.7213,-2.7245,-2.7245,-2.7244,-2.7226,-2.7224,-2.7222,0,0,0,0,0,0,-2.7026,-2.7058,-2.7068,-2.7078,-2.7095,-2.7122,-2.7125,-2.7137,-2.7152,-2.7153,-2.7176,-2.7181,-2.7192,-2.7204,-2.7203,-2.7221,-2.7228,-2.7229,-2.7212,-2.7211,-2.7209,-2.7206,-2.722,0,0,0,0,0,-2.7021,-2.7033,-2.7061,-2.7067,-2.7076,-2.7099,-2.7107,-2.7121,-2.7139,-2.7146,-2.7163,-2.718,-2.7195,-2.7203,-2.7218,-2.7227,-2.7234,-2.723,-2.7229,-2.7227,-2.7227,-2.7235,-2.7235,-2.7243,-2.7243,-2.7243,0,0,-2.7011,-2.7031,-2.7037,-2.7062,-2.7077,-2.709,-2.7104,-2.7116,-2.7126,-2.7147,-2.7161,-2.7175,-2.7196,-2.7207,-2.7213,-2.7218,-2.7227,-2.7227,-2.7226,-2.7227,-2.7235,-2.7234,-2.7233,-2.7243,-2.7243,-2.7243,0,0,-2.7,-2.7015,-2.7024,-2.7039,-2.7062,-2.7078,-2.708,-2.7105,-2.7116,-2.713,-2.7147,-2.7159,-2.7183,-2.7198,-2.7208,-2.7206,-2.7218,-2.721,-2.7202,-2.7209,-2.7209,-2.7208,-2.7209,-2.7209,-2.721,-2.721,-2.721,0,-2.6985,-2.7004,-2.7026,-2.7038,-2.7049,-2.7071,-2.708,-2.7093,-2.7119,-2.7127,-2.7132,-2.7164,-2.7179,-2.7196,-2.7195,-2.7203,-2.7207,-2.7207,-2.7207,-2.7207,-2.7207,-2.7208,-2.7208,-2.7209,-2.7209,-2.7209,-2.721,0,-2.6985,-2.6999,-2.7003,-2.7029,-2.7041,-2.7051,-2.7075,-2.7084,-2.7097,-2.7113,-2.7129,-2.7149,-2.7168,-2.7173,-2.7185,-2.7193,-2.7195,-2.7203,-2.7211,-2.7205,-2.7206,-2.7206,-2.7208,-2.7208,-2.7208,-2.7209,0,0,-2.6956,-2.6996,-2.6997,-2.7011,-2.7039,-2.705,-2.7062,-2.7083,-2.7091,-2.7109,-2.712,-2.7141,-2.715,-2.7162,-2.7176,-2.7183,-2.7182,-2.7191,-2.7192,-2.7189,-2.7193,-2.7187,-2.7187,-2.719,-2.7191,-2.7191,-2.7192,0,-2.6949,-2.6973,-2.6994,-2.7009,-2.7023,-2.7045,-2.7056,-2.7075,-2.7091,-2.7105,-2.7122,-2.7137,-2.7147,-2.7155,-2.7162,-2.7181,-2.7183,-2.7181,-2.7202,-2.7202,-2.7196,-2.7187,-2.718,-2.718,-2.7192,-2.7192,-2.7192,0,-2.6944,-2.6963,-2.698,-2.701,-2.7016,-2.7026,-2.7048,-2.7061,-2.7083,-2.7094,-2.711,-2.7125,-2.714,-2.7147,-2.7168,-2.7166,-2.7176,-2.7187,-2.7187,-2.719,-2.7197,-2.719,-2.7181,-2.7181,-2.7193,-2.7193,-2.7193,0,-2.6923,-2.6952,-2.6967,-2.6978,-2.7012,-2.7018,-2.7033,-2.7055,-2.7067,-2.7087,-2.7095,-2.7115,-2.7126,-2.7142,-2.7163,-2.7166,-2.7183,-2.7191,-2.7193,-2.7193,-2.7195,-2.7195,-2.7188,-2.7201,-2.7201,-2.7201,-2.7201,0,-2.6913,-2.6923,-2.6958,-2.6967,-2.698,-2.7005,-2.7016,-2.7033,-2.7053,-2.7067,-2.7087,-2.7099,-2.7126,-2.7141,-2.7158,-2.7174,-2.7179,-2.7189,-2.7193,-2.7187,-2.7186,-2.7194,-2.7194,-2.7201,-2.7201,-2.7201,-2.7201,0,-2.689,-2.6914,-2.6932,-2.6964,-2.6973,-2.6981,-2.7008,-2.7018,-2.7036,-2.7053,-2.7058,-2.7086,-2.7106,-2.7129,-2.7155,-2.7167,-2.7182,-2.7188,-2.7174,-2.7177,-2.7178,-2.7178,-2.7176,-2.7178,-2.7189,-2.7189,-2.7189,0,-2.6883,-2.6891,-2.6925,-2.6936,-2.695,-2.6967,-2.698,-2.7006,-2.7019,-2.7047,-2.7054,-2.7075,-2.7094,-2.7124,-2.7147,-2.7168,-2.7175,-2.7173,-2.7178,-2.7173,-2.7176,-2.7176,-2.7178,-2.7172,-2.7171,-2.7171,-2.7171,0,-2.6867,-2.6879,-2.6897,-2.6921,-2.6936,-2.6955,-2.6975,-2.6983,-2.7013,-2.7026,-2.7048,-2.7062,-2.7091,-2.7112,-2.7137,-2.7152,-2.7167,-2.7169,-2.7171,-2.7165,-2.7158,-2.7163,-2.7171,-2.7169,-2.7169,-2.7169,-2.7169,-2.717,-2.6852,-2.6862,-2.6888,-2.6908,-2.6927,-2.6946,-2.6958,-2.6978,-2.6997,-2.7023,-2.7037,-2.7058,-2.7083,-2.7117,-2.7133,-2.715,-2.7155,-2.7157,-2.7157,-2.7158,-2.7157,-2.7155,-2.7154,-2.7154,-2.7154,-2.7154,-2.7155,0,-2.6839,-2.6857,-2.6876,-2.6905,-2.6921,-2.6935,-2.6959,-2.6972,-2.699,-2.7012,-2.7031,-2.7057,-2.7078,-2.7104,-2.7128,-2.7137,-2.7144,-2.7142,-2.7142,-2.7145,-2.715,-2.7147,-2.7136,-2.7136,-2.7136,-2.7136,-2.7136,-2.7136,-2.6833,-2.6851,-2.6867,-2.6895,-2.6913,-2.6935,-2.6948,-2.6966,-2.6984,-2.7012,-2.7031,-2.7048,-2.7072,-2.7098,-2.7119,-2.7126,-2.7134,-2.713,-2.7139,-2.7143,-2.7145,-2.7146,-2.7143,-2.7132,-2.7132,-2.7133,-2.7133,-2.7133]}]]